Stations météo

Publicité
Romorantin, France (7247): Température de l'air & dewpoint: 21.05.2019 05:00:00 - 27.05.2019 05:00:00 (CEST)Romorantin, France (7247): Température de l'air 5cm: 21.05.2019 05:00:00 - 27.05.2019 05:00:00 (CEST)Romorantin, France (7247): Température de l'air -20cm & Température de l'air -100cm: 21.05.2019 05:00:00 - 27.05.2019 05:00:00 (CEST)Romorantin, France (7247): Vitesse du vent & gusts: 21.05.2019 05:00:00 - 27.05.2019 05:00:00 (CEST)Romorantin, France (7247): Direction du vent: 21.05.2019 05:00:00 - 27.05.2019 05:00:00 (CEST)Romorantin, France (7247): reduced air pressure: 21.05.2019 05:00:00 - 27.05.2019 05:00:00 (CEST)Romorantin, France (7247): visibility: 21.05.2019 05:00:00 - 27.05.2019 05:00:00 (CEST)Romorantin, France (7247): Quantités de précipitations: 21.05.2019 05:00:00 - 27.05.2019 05:00:00 (CEST)
Date & Time tt [°C] td [°C] tt 5cm [°C] tt -20cm [°C] tt -100cm [°C] ff [km/h] ff [knt] fx [km/h] fx [knt] dd ppp [hPa] vv [km] rr [mm]
27.05.2019 05:00:00 14,5 12,0 14,0 16,6 14,0 6 3 12 6 WSW 1014,9 20 0,0
27.05.2019 04:00:00 14,7 12,0 14,2 16,6 14,0 6 4 14 7 WSW 1015,1 20 0,0
27.05.2019 03:00:00 15,1 12,2 14,6 16,7 14,0 6 3 10 6 WSW 1015,3 20 0,0
27.05.2019 02:00:00 15,3 12,4 14,6 16,8 14,0 4 2 9 5 SW 1015,7 20 0,0
27.05.2019 01:00:00 15,0 12,7 14,4 16,8 14,0 4 2 6 4 SW 1016,1 20 0,0
27.05.2019 00:00:00 15,9 12,6 15,2 16,9 13,9 3 2 11 6 SW 1016,6 20 0,0
26.05.2019 23:00:00 16,9 12,2 16,1 16,9 13,9 7 4 12 6 WNW 1016,6 20 0,0
26.05.2019 22:00:00 17,2 12,3 16,3 16,9 14,0 5 3 9 5 W 1016,5 20 0,0
26.05.2019 21:00:00 17,7 12,2 17,2 16,8 13,9 5 3 18 10 W 1016,4 20 0,0
26.05.2019 20:00:00 18,7 12,0 19,1 16,8 13,9 10 5 22 12 WNW 1016,6 20 0,0
26.05.2019 19:00:00 19,2 12,0 19,7 16,7 14,0 10 6 29 15 WNW 1016,9 20 0,0
26.05.2019 18:00:00 19,7 11,5 21,5 16,5 13,9 14 8 27 14 WNW 1017,1 20 0,0
26.05.2019 17:00:00 20,2 11,1 22,4 16,4 14,0 11 6 27 15 W 1017,5 20 0,0
26.05.2019 16:00:00 20,4 10,8 24,2 16,2 13,9 15 8 29 15 W 1018,1 20 0,0
26.05.2019 15:00:00 20,8 11,7 22,3 16,1 13,9 17 9 31 17 W 1018,2 20 0,0
26.05.2019 14:00:00 20,3 11,2 22,7 16,0 13,9 12 6 28 15 W 1018,6 20 0,0
26.05.2019 13:00:00 20,2 10,9 22,2 15,9 13,9 14 7 26 14 NW 1019,0 20 0,0
26.05.2019 12:00:00 20,0 9,8 22,5 15,8 13,9 10 5 24 13 WNW 1019,1 20 0,0
26.05.2019 11:00:00 19,2 11,0 23,6 15,7 13,9 11 6 23 13 W 1019,5 20 0,0
26.05.2019 10:00:00 16,9 13,2 17,0 15,8 13,9 7 4 12 7 W 1019,8 20 0,0
26.05.2019 09:00:00 14,9 13,1 14,7 15,8 13,8 7 4 11 6 WNW 1019,6 20 0,0
26.05.2019 08:00:00 12,6 12,6 10,9 16,0 13,9 2 1 4 2 SSW 1019,5 11 0,0
26.05.2019 07:00:00 10,4 10,4 9,0 16,1 13,9 0 0 4 2 N 1019,7 1,4 0,0
26.05.2019 06:00:00 9,4 9,3 8,0 16,2 13,8 0 0 4 2 N 1019,4 0,2 0,0
26.05.2019 05:00:00 9,3 9,0 8,0 16,3 13,8 0 0 2 1 N 1019,5 0,3 0,0
26.05.2019 04:00:00 10,8 10,8 9,4 16,5 13,9 2 1 4 2 SE 1019,8 0,2 0,0
26.05.2019 03:00:00 10,5 10,0 8,5 16,6 13,9 0 0 4 2 N 1020,0 0,3 0,0
26.05.2019 02:00:00 11,5 10,6 10,1 16,6 13,8 2 1 5 3 SW 1020,2 0,3 0,0
26.05.2019 01:00:00 14,0 13,4 12,9 16,8 13,8 4 2 14 7 N 1020,6 19 0,2
26.05.2019 00:00:00 14,3 13,7 13,6 16,8 13,8 9 5 20 11 SE 1020,4 18 3,2
25.05.2019 23:00:00 14,3 12,5 9,9 16,9 13,8 6 3 23 13 N 1020,5 18 0,0
25.05.2019 22:00:00 13,5 10,8 11,0 16,9 13,8 0 0 6 3 N 1019,4 17 0,0
25.05.2019 21:00:00 19,5 11,5 17,7 16,9 13,8 3 2 11 6 NNW 1018,7 20 0,0
25.05.2019 20:00:00 20,2 10,9 20,4 16,8 13,8 6 3 18 10 NNW 1018,6 20 0,0
25.05.2019 19:00:00 21,3 9,5 22,4 16,7 13,8 12 6 22 12 NW 1018,3 20 0,0
25.05.2019 18:00:00 21,5 10,6 21,1 16,6 13,8 11 6 22 12 NNW 1018,2 20 0,0
25.05.2019 17:00:00 19,9 11,1 19,0 16,5 13,7 8 4 16 9 NNW 1018,5 20 0,0
25.05.2019 16:00:00 21,0 11,6 23,2 16,4 13,7 4 2 11 6 SE 1018,3 20 0,0
25.05.2019 15:00:00 21,5 10,9 24,0 16,3 13,8 4 2 19 11 NNE 1018,8 20 0,0
25.05.2019 14:00:00 20,3 12,0 22,5 16,2 13,7 11 6 20 11 W 1019,3 20 0,0
25.05.2019 13:00:00 19,0 11,6 21,1 16,1 13,7 4 2 18 10 N 1019,8 20 0,0
25.05.2019 12:00:00 19,5 10,8 23,4 16,0 13,7 10 5 18 10 WNW 1019,9 20 0,0
25.05.2019 11:00:00 18,4 11,5 21,4 16,1 13,7 3 1 16 8 WNW 1019,7 20 0,0
25.05.2019 10:00:00 16,8 11,7 16,6 16,1 13,7 6 3 11 6 NW 1019,6 20 0,0
25.05.2019 09:00:00 14,1 10,7 14,9 16,2 13,7 4 2 11 6 N 1019,4 20 0,0
25.05.2019 08:00:00 12,9 10,3 11,6 16,3 13,7 4 2 10 5 N 1018,9 20 0,0
25.05.2019 07:00:00 11,6 9,7 10,2 16,5 13,7 5 3 12 7 N 1018,7 20 0,0
25.05.2019 06:00:00 12,0 10,1 10,2 16,6 13,7 4 2 13 7 WNW 1018,3 20 0,0
25.05.2019 05:00:00 12,9 10,6 11,8 16,6 13,6 5 3 13 7 NW 1018,1 20 0,0
25.05.2019 04:00:00 13,4 11,3 12,4 16,8 13,6 4 2 11 6 NNW 1018,2 20 0,0
25.05.2019 03:00:00 13,7 11,7 12,6 16,9 13,6 5 3 10 6 WNW 1018,1 20 0,0
25.05.2019 02:00:00 14,2 12,6 12,5 16,9 13,6 5 3 9 5 W 1017,9 20 0,0
25.05.2019 01:00:00 12,9 12,0 12,0 17,0 13,6 0 0 7 4 N 1018,1 17 0,0
25.05.2019 00:00:00 15,1 13,0 13,6 17,1 13,6 2 1 7 4 WNW 1017,9 16 0,0
24.05.2019 23:00:00 16,1 12,3 15,0 17,1 13,6 0 0 4 2 N 1017,7 20 0,0
24.05.2019 22:00:00 16,7 12,4 16,0 17,1 13,6 2 1 13 7 NE 1017,3 20 0,0
24.05.2019 21:00:00 17,7 11,9 17,4 17,0 13,6 9 5 24 13 NNW 1016,8 20 0,0
24.05.2019 20:00:00 19,9 12,6 20,6 16,9 13,6 10 5 23 12 NW 1016,2 20 0,0
24.05.2019 19:00:00 20,9 11,8 22,6 16,7 13,6 14 7 24 13 NNW 1015,9 20 0,0
24.05.2019 18:00:00 21,8 12,4 24,4 16,6 13,5 11 6 26 14 WNW 1016,0 20 0,0
24.05.2019 17:00:00 21,2 12,3 24,5 16,4 13,5 16 9 29 15 WNW 1016,2 20 0,0
24.05.2019 16:00:00 21,5 10,6 25,0 16,2 13,5 8 5 21 11 NW 1016,5 20 0,0
24.05.2019 15:00:00 20,9 11,0 24,4 16,1 13,5 14 8 24 13 NW 1016,7 20 0,0
24.05.2019 14:00:00 21,5 11,8 26,7 16,0 13,5 14 7 27 15 WNW 1016,8 20 0,0
24.05.2019 13:00:00 21,3 11,6 25,3 15,9 13,5 11 6 25 14 NW 1016,9 20 0,0
24.05.2019 12:00:00 20,2 12,7 23,8 15,8 13,5 13 7 22 12 NW 1017,0 20 0,0
24.05.2019 11:00:00 20,4 11,1 22,4 15,7 13,5 9 5 16 8 N 1016,9 20 0,0
24.05.2019 10:00:00 19,3 11,3 20,6 15,8 13,5 5 3 18 10 N 1017,0 20 0,0
24.05.2019 09:00:00 18,3 10,9 20,2 15,9 13,5 13 7 19 10 NE 1016,8 20 0,0
24.05.2019 08:00:00 13,7 11,7 9,5 16,0 13,5 4 2 9 5 ENE 1016,9 20 0,0
24.05.2019 07:00:00 9,5 9,4 7,1 16,1 13,4 2 1 7 4 W 1017,0 20 0,0
24.05.2019 06:00:00 11,3 10,2 9,1 16,3 13,4 4 2 14 8 NW 1016,5 20 0,0
24.05.2019 05:00:00 11,0 10,2 7,6 16,4 13,4 6 3 16 8 W 1016,3 20 0,0
24.05.2019 04:00:00 12,5 9,3 10,0 16,5 13,4 0 0 7 4 N 1016,2 20 0,0
24.05.2019 03:00:00 14,4 9,8 10,3 16,6 13,4 4 2 13 7 N 1016,2 20 0,0
24.05.2019 02:00:00 10,8 9,7 9,9 16,7 13,4 2 1 6 3 N 1016,6 20 0,0
24.05.2019 01:00:00 11,1 9,8 9,9 16,9 13,4 0 0 0 0 N 1016,5 20 0,0
24.05.2019 00:00:00 12,2 10,3 10,6 16,9 13,4 0 0 0 0 N 1016,5 20 0,0
23.05.2019 23:00:00 13,5 10,5 11,6 16,9 13,4 0 0 0 0 N 1016,6 20 0,0
23.05.2019 22:00:00 15,4 11,8 13,9 16,9 13,4 0 0 4 2 N 1016,4 20 0,0
23.05.2019 21:00:00 18,7 10,0 17,4 16,8 13,4 0 0 6 3 N 1016,1 20 0,0
23.05.2019 20:00:00 22,3 5,7 21,6 16,6 13,4 3 1 10 5 NW 1015,9 20 0,0
23.05.2019 19:00:00 22,9 6,2 24,7 16,4 13,4 4 2 10 5 NNE 1015,8 20 0,0
23.05.2019 18:00:00 22,6 5,9 25,1 16,2 13,4 6 3 11 6 SE 1016,2 20 0,0
23.05.2019 17:00:00 23,2 7,7 28,4 15,9 13,4 4 2 16 9 S 1016,3 20 0,0
23.05.2019 16:00:00 23,0 6,3 27,6 15,6 13,4 7 4 15 8 SSW 1016,7 20 0,0
23.05.2019 15:00:00 22,9 7,0 29,6 15,3 13,3 4 2 16 9 ESE 1017,1 20 0,0
23.05.2019 14:00:00 22,5 7,1 30,8 15,0 13,3 8 4 17 9 W 1017,7 20 0,0
23.05.2019 13:00:00 21,9 8,4 29,7 14,9 13,3 9 5 19 10 E 1018,1 20 0,0
23.05.2019 12:00:00 20,4 5,6 28,7 14,8 13,3 7 4 16 9 NNE 1018,7 20 0,0
23.05.2019 11:00:00 - - - - - - - - - - - - -
23.05.2019 10:00:00 17,5 10,1 21,2 14,8 13,3 3 2 8 4 NE 1019,2 20 0,0
23.05.2019 09:00:00 14,7 9,5 16,7 14,9 13,3 6 3 9 5 NE 1019,1 20 0,0
23.05.2019 08:00:00 10,0 9,2 5,1 15,0 13,3 0 0 4 2 N 1019,4 20 0,0
23.05.2019 07:00:00 4,5 4,5 1,5 15,2 13,3 0 0 2 1 N 1019,2 7 0,0
23.05.2019 06:00:00 3,5 3,4 1,5 15,4 13,3 0 0 2 1 N 1019,5 0,3 0,0
23.05.2019 05:00:00 3,9 3,8 2,0 15,6 13,3 0 0 2 1 N 1019,6 0,2 0,0
23.05.2019 04:00:00 5,5 5,4 2,6 15,8 13,3 0 0 2 1 N 1019,5 0,3 0,0
23.05.2019 03:00:00 6,2 6,1 3,5 16,0 13,3 0 0 2 1 N 1019,6 0,3 0,0
23.05.2019 02:00:00 7,0 6,9 3,9 16,1 13,3 0 0 3 2 N 1019,7 8 0,0
23.05.2019 01:00:00 7,4 6,8 5,0 16,3 13,2 0 0 3 1 N 1019,9 20 0,0
23.05.2019 00:00:00 8,1 6,9 6,0 16,4 13,2 2 1 3 2 E 1020,3 20 0,0
22.05.2019 23:00:00 10,3 8,1 7,5 16,4 13,2 0 0 4 2 N 1020,3 20 0,0
22.05.2019 22:00:00 12,9 8,8 10,2 16,4 13,2 0 0 4 2 N 1019,8 20 0,0
22.05.2019 21:00:00 19,8 6,5 17,4 16,3 13,2 3 2 17 9 NNW 1019,4 20 0,0
22.05.2019 20:00:00 21,5 6,2 22,1 16,1 13,2 8 4 19 10 NNW 1019,3 18 0,0
22.05.2019 19:00:00 22,1 5,9 25,4 15,9 13,2 8 4 18 10 N 1019,2 20 0,0
22.05.2019 18:00:00 22,5 5,4 26,9 15,6 13,2 6 4 25 14 NNE 1019,4 20 0,0
22.05.2019 17:00:00 22,9 5,8 25,8 15,4 13,2 8 5 25 13 NNW 1019,6 20 0,0
22.05.2019 16:00:00 22,8 6,1 24,0 15,1 13,2 8 4 24 13 W 1019,6 20 0,0
22.05.2019 15:00:00 22,3 6,5 22,7 14,8 13,2 11 6 19 11 N 1019,9 20 0,0
22.05.2019 14:00:00 20,8 6,7 23,3 14,6 13,2 10 5 21 11 N 1020,3 20 0,0
22.05.2019 13:00:00 21,1 6,6 25,8 14,5 13,2 9 5 18 10 NNW 1020,6 20 0,0
22.05.2019 12:00:00 19,9 8,9 23,6 14,3 13,2 7 4 15 8 N 1020,7 20 0,0
22.05.2019 11:00:00 18,8 10,9 24,6 14,3 13,2 5 3 11 6 NNW 1020,7 20 0,0
22.05.2019 10:00:00 16,5 11,6 20,8 14,3 13,1 3 2 9 5 NW 1020,7 20 0,0
22.05.2019 09:00:00 13,7 10,7 13,1 14,4 13,1 2 1 5 3 ENE 1020,8 17 0,0
22.05.2019 08:00:00 9,1 9,1 5,3 14,5 13,1 0 0 3 2 N 1021,0 19 0,0
22.05.2019 07:00:00 4,8 4,7 2,5 14,7 13,1 0 0 5 3 N 1020,9 1,8 0,0
22.05.2019 06:00:00 4,5 4,4 2,6 14,9 13,1 0 0 4 2 N 1020,6 0,3 0,0
22.05.2019 05:00:00 5,7 5,6 3,8 15,1 13,1 0 0 0 0 N 1020,4 0,3 0,0
22.05.2019 04:00:00 6,8 6,8 4,8 15,2 13,1 0 0 4 2 N 1020,6 1,0 0,0
22.05.2019 03:00:00 6,2 6,1 3,8 15,4 13,1 0 0 3 1 N 1020,5 11 0,0
22.05.2019 02:00:00 5,0 4,1 3,8 15,6 13,1 0 0 4 2 N 1020,3 0,4 0,0
22.05.2019 01:00:00 6,7 6,1 5,1 15,7 13,1 0 0 6 3 N 1020,2 0,2 0,0
22.05.2019 00:00:00 8,0 7,6 5,8 15,8 13,1 0 0 3 2 N 1020,2 0,3 0,0
21.05.2019 23:00:00 9,9 9,7 7,0 15,9 13,1 0 0 4 2 N 1020,0 0,8 0,0
21.05.2019 22:00:00 11,6 9,5 8,9 15,9 13,1 0 0 7 4 N 1019,6 19 0,0
21.05.2019 21:00:00 15,8 10,5 13,7 15,8 13,1 4 2 16 9 NE 1019,1 20 0,0
21.05.2019 20:00:00 16,6 10,9 16,4 15,7 13,1 14 7 23 12 E 1018,7 20 0,0
21.05.2019 19:00:00 18,8 10,6 20,0 15,6 13,1 6 3 40 22 NNE 1018,0 20 0,0
21.05.2019 18:00:00 21,1 10,9 21,0 15,4 13,0 6 4 24 13 NW 1017,5 20 0,0
21.05.2019 17:00:00 19,7 9,3 21,2 15,2 13,0 8 4 21 11 N 1017,8 20 0,0
21.05.2019 16:00:00 20,6 10,4 23,4 14,9 13,0 11 6 26 14 N 1017,7 20 0,0
21.05.2019 15:00:00 20,8 9,1 24,2 14,7 13,0 6 4 24 13 N 1017,8 20 0,0
21.05.2019 14:00:00 20,3 9,2 23,3 14,5 13,0 10 5 22 12 N 1017,8 20 0,0
21.05.2019 13:00:00 19,2 9,4 22,2 14,4 13,0 9 5 24 13 NNE 1018,1 20 0,0
21.05.2019 12:00:00 18,8 9,3 21,6 14,3 13,0 8 5 20 11 N 1018,0 20 0,0
21.05.2019 11:00:00 17,8 10,4 24,0 14,2 13,0 7 4 16 8 NNE 1018,0 20 0,0
21.05.2019 10:00:00 16,9 10,3 21,6 14,3 13,0 6 3 14 7 N 1017,8 19 0,0
21.05.2019 09:00:00 14,5 10,7 16,2 14,3 13,0 3 2 8 4 NE 1017,5 13 0,0
21.05.2019 08:00:00 11,1 10,8 7,1 14,4 13,0 0 0 3 2 N 1017,2 2,5 0,0
21.05.2019 07:00:00 7,3 7,0 5,6 14,5 13,0 0 0 5 3 N 1016,9 0,3 0,0
21.05.2019 06:00:00 8,1 7,7 5,7 14,6 13,0 0 0 4 2 N 1016,4 0,3 0,0
21.05.2019 05:00:00 10,4 9,8 8,4 14,7 13,0 0 0 3 1 N 1015,8 0,4 0,0

tt = Température de l'air
td = dewpoint
tt 5cm = Température de l'air 5cm
tt -20cm = Température de l'air -20cm
tt -100cm = Température de l'air -100cm
ff = Vitesse du vent
fx = gusts
dd = Direction du vent
ppp = reduced air pressure
vv = visibility
rr = Quantités de précipitations

stations d'obs. à proximité